User: anonymous   Login
Location: Columbia
(38.9520°N, 92.3340°W)
Time: 19:04:23
(UTC-05:00)
Language:

CZ-4B R/B - Orbit

View from above orbital plane
View from above orbital plane
View from above satellite
View from above satellite

Ground track
Ground track

The orbit data is extracted from the following two-line orbital elements,

1 29093U 06015B   17082.86198724 +.00004285 +00000-0 +10538-3 0  9997
2 29093 097.4871 191.8071 0063566 264.2601 095.1394 15.39125256604308
Epoch (UTC): 23 March 2017 20:41:15
Eccentricity: 0.0063566
inclination: 97.4871°
perigee height: 405 km
apogee height: 492 km
right ascension of ascending node: 191.8071°
argument of perigee: 264.2601°
revolutions per day: 15.39125256
mean anomaly at epoch: 95.1394°
orbit number at epoch: 60430

The dashed part of the orbit path shows where the satellite is in the earth's shadow,  

DLR